Overview Statistics Trail Chart Weather Telemetry Raw packets
 

This is the latest recevied weather packets stored in our database for station/object EA3AGY-13. If no packets are shown the sender has not sent any weather packets the latest 10 day(s).

<< 6 7 8 9 10 11 12 >>
Time Temp. Humidity Pressure Rain* Wind** Luminosity Snow
1788284482 22.22° C 29% 1021.2 hPa 0 mm - - -
1788283879 22.22° C 28% 1021.2 hPa 0 mm - - -
1788283277 22.22° C 27% 1021.3 hPa 0 mm - - -
1788282675 21.67° C 25% 1021.4 hPa 0 mm - - -
1788282074 23.33° C 23% 1021.5 hPa 0 mm - - -
1788281470 23.33° C 20% 1021.4 hPa 0 mm - - -
1788280265 25° C 15% 1021.4 hPa 0 mm - - -
1788279665 27.22° C 15% 1021.5 hPa 0 mm - - -
1788277857 -25.56° C 22% 1021.3 hPa 0 mm - - -
1788277257 -27.22° C 21% 1021.4 hPa 0 mm - - -
1788276651 -26.67° C 24% 1021.4 hPa 0 mm - - -
1788274847 26.11° C 24% 1021.3 hPa 0 mm - - -
1788273639 25.56° C 28% 1021.4 hPa 0 mm - - -
1788271832 23.89° C 34% 1021.7 hPa 0 mm - - -
1788270627 21.67° C 34% 1021.9 hPa 0 mm - - -
1788267616 23.33° C 35% 1021.9 hPa 0 mm - - -
1788266411 22.78° C 35% 1022.1 hPa 0 mm - - -
1788265208 22.78° C 35% 1022.1 hPa 0 mm - - -
1788264025 22.78° C 37% 1022.1 hPa 0 mm - - -
1788263400 22.78° C 36% 1022.2 hPa 0 mm - - -
1788259183 22.78° C 41% 1021.8 hPa 0 mm - - -
1788257376 21.67° C 41% 1022 hPa 0 mm - - -
1788256773 21.11° C 41% 1022 hPa 0 mm - - -
1788256172 21.11° C 43% 1022 hPa 0 mm - - -
1788255568 20.56° C 43% 1022.1 hPa 0 mm - - -

* Rain since midnight (hover to see other rain measurements)
** Current wind speed in m/s (hover to see current wind gust speed)